LPE2024 SPTU-SPJC

Flight info

Callsign LPE2024
Flight time 1h 21m
Altitude 38000
Route PUMSA UT332 UDENI UT321 PEROV6
Aircraft A319/M-SDE3FGHIRWY/LB1

Departure

Time 2026-05-05 22:44
Airport Padre Aldamiz International Airport (SPTU)

Arrival

Time 2026-05-06 00:06
Airport Jorge Chávez International Airport (SPJC)
Time Latitude Longitude Altitude Speed Heading
2026-05-05 22:08 -12.60433 -69.22201 701 ft 0 kts 53°
2026-05-05 22:33 -12.60435 -69.22205 702 ft 0 kts 53°
2026-05-05 22:37 -12.60433 -69.22203 702 ft 0 kts 40°
2026-05-05 22:37 -12.60422 -69.22202 702 ft 2 kts 342°
2026-05-05 22:37 -12.60412 -69.22217 701 ft 2 kts 304°
2026-05-05 22:38 -12.60400 -69.22234 701 ft 3 kts 304°
2026-05-05 22:38 -12.60374 -69.22247 701 ft 6 kts 355°
2026-05-05 22:38 -12.60325 -69.22247 701 ft 5 kts
2026-05-05 22:38 -12.60308 -69.22268 701 ft 5 kts 275°
2026-05-05 22:39 -12.60305 -69.22322 701 ft 8 kts 272°
2026-05-05 22:39 -12.60302 -69.22397 702 ft 9 kts 275°
2026-05-05 22:39 -12.60299 -69.22446 703 ft 7 kts 272°
2026-05-05 22:39 -12.60298 -69.22511 704 ft 10 kts 270°
2026-05-05 22:40 -12.60296 -69.22582 704 ft 10 kts 273°
2026-05-05 22:40 -12.60293 -69.22655 704 ft 10 kts 271°
2026-05-05 22:40 -12.60293 -69.22729 705 ft 9 kts 271°
2026-05-05 22:40 -12.60290 -69.22797 707 ft 9 kts 272°
2026-05-05 22:41 -12.60251 -69.22825 707 ft 8 kts
2026-05-05 22:41 -12.60189 -69.22821 707 ft 9 kts
2026-05-05 22:41 -12.60122 -69.22817 707 ft 9 kts
2026-05-05 22:41 -12.60051 -69.22813 707 ft 10 kts
2026-05-05 22:42 -12.59976 -69.22810 707 ft 11 kts
2026-05-05 22:42 -12.59899 -69.22807 707 ft 10 kts 349°
2026-05-05 22:42 -12.59834 -69.22845 707 ft 8 kts 326°
2026-05-05 22:42 -12.59794 -69.22822 707 ft 8 kts 96°
2026-05-05 22:43 -12.59825 -69.22804 707 ft 3 kts 197°
2026-05-05 22:43 -12.59831 -69.22804 707 ft 0 kts 185°
2026-05-05 22:43 -12.59873 -69.22807 707 ft 29 kts 182°
2026-05-05 22:44 -12.60322 -69.22825 707 ft 97 kts 182°
2026-05-05 22:44 -12.61210 -69.22861 716 ft 153 kts 182°
2026-05-05 22:44 -12.62367 -69.22910 1034 ft 171 kts 183°
2026-05-05 22:44 -12.63566 -69.22980 1529 ft 179 kts 183°
2026-05-05 22:45 -12.64890 -69.23051 1947 ft 196 kts 188°
2026-05-05 22:45 -12.66153 -69.23624 2326 ft 210 kts 229°
2026-05-05 22:45 -12.66820 -69.24985 2706 ft 227 kts 257°
2026-05-05 22:45 -12.67212 -69.26625 3223 ft 245 kts 258°
2026-05-05 22:46 -12.67655 -69.28371 3745 ft 264 kts 256°
2026-05-05 22:46 -12.68192 -69.30197 4446 ft 274 kts 254°
2026-05-05 22:46 -12.68785 -69.32028 5330 ft 277 kts 253°
2026-05-05 22:46 -12.69416 -69.33887 6241 ft 279 kts 252°
2026-05-05 22:47 -12.70067 -69.35753 7122 ft 281 kts 252°
2026-05-05 22:47 -12.70727 -69.37618 7967 ft 284 kts 252°
2026-05-05 22:47 -12.71406 -69.39524 8790 ft 287 kts 252°
2026-05-05 22:47 -12.72086 -69.41420 9554 ft 289 kts 251°
2026-05-05 22:48 -12.72783 -69.43366 10264 ft 293 kts 251°
2026-05-05 22:48 -12.73497 -69.45359 10661 ft 308 kts 251°
2026-05-05 22:48 -12.74255 -69.47469 11024 ft 324 kts 251°
2026-05-05 22:48 -12.75045 -69.49670 11613 ft 330 kts 251°
2026-05-05 22:49 -12.75832 -69.51858 12221 ft 334 kts 251°
2026-05-05 22:49 -12.76638 -69.54097 12809 ft 338 kts 251°
2026-05-05 22:49 -12.77457 -69.56372 13381 ft 343 kts 251°
2026-05-05 22:49 -12.78282 -69.58672 13956 ft 346 kts 251°
2026-05-05 22:50 -12.79114 -69.60986 14523 ft 350 kts 251°
2026-05-05 22:50 -12.79956 -69.63329 15080 ft 354 kts 250°
2026-05-05 22:50 -12.80812 -69.65713 15644 ft 357 kts 251°
2026-05-05 22:50 -12.81665 -69.68091 16191 ft 361 kts 250°
2026-05-05 22:51 -12.82538 -69.70525 16747 ft 364 kts 250°
2026-05-05 22:51 -12.83374 -69.72963 17275 ft 367 kts 255°
2026-05-05 22:51 -12.83888 -69.75523 17788 ft 369 kts 264°
2026-05-05 22:51 -12.83996 -69.78157 18274 ft 372 kts 273°
2026-05-05 22:52 -12.83886 -69.80802 18759 ft 375 kts 274°
2026-05-05 22:52 -12.83741 -69.83476 19237 ft 379 kts 275°
2026-05-05 22:52 -12.83592 -69.86184 19699 ft 383 kts 275°
2026-05-05 22:52 -12.83447 -69.88914 20166 ft 386 kts 275°
2026-05-05 22:53 -12.83306 -69.91661 20635 ft 389 kts 275°
2026-05-05 22:53 -12.83170 -69.94398 21056 ft 392 kts 275°
2026-05-05 22:53 -12.83030 -69.97226 21482 ft 395 kts 275°
2026-05-05 22:53 -12.82892 -70.00038 21898 ft 398 kts 275°
2026-05-05 22:54 -12.82754 -70.02881 22318 ft 401 kts 275°
2026-05-05 22:54 -12.82615 -70.05709 22777 ft 402 kts 275°
2026-05-05 22:54 -12.82475 -70.08578 23243 ft 404 kts 275°
2026-05-05 22:54 -12.82334 -70.11452 23692 ft 405 kts 275°
2026-05-05 22:55 -12.82194 -70.14328 24140 ft 407 kts 275°
2026-05-05 22:55 -12.82053 -70.17221 24589 ft 408 kts 275°
2026-05-05 22:55 -12.81911 -70.20123 25025 ft 409 kts 275°
2026-05-05 22:55 -12.81770 -70.23001 25442 ft 411 kts 275°
2026-05-05 22:56 -12.81626 -70.25929 25862 ft 412 kts 275°
2026-05-05 22:56 -12.81483 -70.28854 26279 ft 414 kts 275°
2026-05-05 22:56 -12.81335 -70.31820 26696 ft 415 kts 275°
2026-05-05 22:56 -12.81191 -70.34742 27101 ft 417 kts 275°
2026-05-05 22:57 -12.81042 -70.37712 27503 ft 418 kts 275°
2026-05-05 22:57 -12.80894 -70.40687 27907 ft 419 kts 274°
2026-05-05 22:57 -12.80746 -70.43652 28300 ft 421 kts 275°
2026-05-05 22:57 -12.80596 -70.46662 28687 ft 422 kts 274°
2026-05-05 22:58 -12.80444 -70.49680 29069 ft 424 kts 275°
2026-05-05 22:58 -12.80296 -70.52662 29407 ft 426 kts 275°
2026-05-05 22:58 -12.80142 -70.55712 29723 ft 429 kts 275°
2026-05-05 22:58 -12.79988 -70.58752 30056 ft 432 kts 275°
2026-05-05 22:59 -12.79833 -70.61831 30400 ft 434 kts 275°
2026-05-05 22:59 -12.79676 -70.64904 30732 ft 436 kts 275°
2026-05-05 22:59 -12.79518 -70.68014 31064 ft 438 kts 275°
2026-05-05 22:59 -12.79361 -70.71107 31476 ft 438 kts 275°
2026-05-05 23:00 -12.79047 -70.77284 32445 ft 434 kts 275°
2026-05-05 23:00 -12.78888 -70.80385 32930 ft 432 kts 275°
2026-05-05 23:00 -12.78731 -70.83440 33417 ft 431 kts 275°
2026-05-05 23:01 -12.78575 -70.86465 33912 ft 429 kts 275°
2026-05-05 23:01 -12.78419 -70.89494 34399 ft 427 kts 276°
2026-05-05 23:01 -12.78261 -70.92544 34811 ft 427 kts 276°
2026-05-05 23:01 -12.78103 -70.95584 35167 ft 428 kts 276°
2026-05-05 23:02 -12.77946 -70.98584 35508 ft 428 kts 276°
2026-05-05 23:02 -12.77787 -71.01649 35823 ft 429 kts 276°
2026-05-05 23:02 -12.77627 -71.04677 36065 ft 431 kts 276°
2026-05-05 23:02 -12.77466 -71.07735 36097 ft 432 kts 276°
2026-05-05 23:03 -12.77144 -71.13863 36090 ft 432 kts 276°
2026-05-05 23:03 -12.76820 -71.20013 36106 ft 432 kts 276°
2026-05-05 23:04 -12.76496 -71.26140 36117 ft 431 kts 276°
2026-05-05 23:04 -12.76171 -71.32255 36141 ft 431 kts 276°
2026-05-05 23:05 -12.75846 -71.38357 36161 ft 431 kts 276°
2026-05-05 23:05 -12.75519 -71.44486 36185 ft 431 kts 276°
2026-05-05 23:06 -12.75188 -71.50613 36352 ft 435 kts 276°
2026-05-05 23:06 -12.75022 -71.53693 36799 ft 432 kts 276°
2026-05-05 23:06 -12.74859 -71.56708 37268 ft 428 kts 276°
2026-05-05 23:07 -12.74692 -71.59734 37670 ft 426 kts 276°
2026-05-05 23:07 -12.74527 -71.62753 38013 ft 424 kts 276°
2026-05-05 23:07 -12.74362 -71.65775 38318 ft 423 kts 276°
2026-05-05 23:07 -12.74196 -71.68781 38504 ft 423 kts 276°
2026-05-05 23:08 -12.73869 -71.74747 38529 ft 415 kts 276°
2026-05-05 23:08 -12.73712 -71.77635 38576 ft 403 kts 276°
2026-05-05 23:08 -12.73555 -71.80479 38599 ft 401 kts 276°
2026-05-05 23:09 -12.73239 -71.86169 38628 ft 400 kts 276°
2026-05-05 23:09 -12.72927 -71.91862 38616 ft 400 kts 276°
2026-05-05 23:10 -12.72613 -71.97491 38575 ft 396 kts 276°
2026-05-05 23:10 -12.72298 -72.03103 38546 ft 394 kts 276°
2026-05-05 23:11 -12.71979 -72.08697 38553 ft 393 kts 276°
2026-05-05 23:11 -12.71662 -72.14254 38534 ft 394 kts 276°
2026-05-05 23:12 -12.71344 -72.19849 38515 ft 395 kts 276°
2026-05-05 23:12 -12.71028 -72.25437 38531 ft 394 kts 276°
2026-05-05 23:13 -12.70708 -72.31051 38515 ft 394 kts 276°
2026-05-05 23:13 -12.70388 -72.36620 38509 ft 395 kts 276°
2026-05-05 23:14 -12.70064 -72.42246 38459 ft 395 kts 276°
2026-05-05 23:14 -12.69743 -72.47820 38414 ft 395 kts 276°
2026-05-05 23:15 -12.69418 -72.53425 38399 ft 395 kts 275°
2026-05-05 23:15 -12.69095 -72.59029 38414 ft 395 kts 276°
2026-05-05 23:16 -12.68766 -72.64642 38429 ft 395 kts 276°
2026-05-05 23:16 -12.68438 -72.70224 38423 ft 395 kts 276°
2026-05-05 23:17 -12.68109 -72.75813 38431 ft 395 kts 276°
2026-05-05 23:17 -12.67778 -72.81437 38418 ft 395 kts 275°
2026-05-05 23:18 -12.67448 -72.87029 38434 ft 395 kts 275°
2026-05-05 23:18 -12.67115 -72.92625 38423 ft 395 kts 275°
2026-05-05 23:19 -12.66780 -72.98244 38415 ft 395 kts 275°
2026-05-05 23:19 -12.66446 -73.03834 38395 ft 395 kts 275°
2026-05-05 23:20 -12.66108 -73.09463 38414 ft 397 kts 275°
2026-05-05 23:20 -12.65771 -73.15083 38380 ft 396 kts 275°
2026-05-05 23:21 -12.65432 -73.20699 38373 ft 396 kts 275°
2026-05-05 23:21 -12.65092 -73.26293 38380 ft 396 kts 275°
2026-05-05 23:22 -12.64751 -73.31902 38397 ft 396 kts 275°
2026-05-05 23:22 -12.64408 -73.37511 38421 ft 395 kts 275°
2026-05-05 23:23 -12.64063 -73.43116 38460 ft 396 kts 275°
2026-05-05 23:23 -12.63720 -73.48733 38494 ft 396 kts 275°
2026-05-05 23:24 -12.63374 -73.54364 38465 ft 396 kts 275°
2026-05-05 23:24 -12.63028 -73.59958 38469 ft 396 kts 275°
2026-05-05 23:25 -12.62681 -73.65562 38403 ft 396 kts 275°
2026-05-05 23:25 -12.62329 -73.71204 38338 ft 397 kts 275°
2026-05-05 23:26 -12.61980 -73.76794 38293 ft 397 kts 275°
2026-05-05 23:26 -12.61628 -73.82450 38323 ft 397 kts 275°
2026-05-05 23:27 -12.61275 -73.88076 38427 ft 397 kts 275°
2026-05-05 23:27 -12.60920 -73.93671 38489 ft 396 kts 275°
2026-05-05 23:28 -12.60558 -73.99326 38536 ft 397 kts 275°
2026-05-05 23:28 -12.60198 -74.04931 38589 ft 397 kts 275°
2026-05-05 23:29 -12.59838 -74.10574 38593 ft 404 kts 275°
2026-05-05 23:29 -12.59468 -74.16357 38651 ft 414 kts 275°
2026-05-05 23:30 -12.59084 -74.22316 38700 ft 424 kts 275°
2026-05-05 23:30 -12.58693 -74.28378 38728 ft 429 kts 275°
2026-05-05 23:31 -12.58303 -74.34410 38726 ft 428 kts 275°
2026-05-05 23:31 -12.57905 -74.40522 38765 ft 429 kts 275°
2026-05-05 23:32 -12.57509 -74.46581 38783 ft 429 kts 275°
2026-05-05 23:32 -12.57113 -74.52659 38825 ft 433 kts 275°
2026-05-05 23:33 -12.56705 -74.58869 38826 ft 443 kts 275°
2026-05-05 23:33 -12.56289 -74.65185 38869 ft 446 kts 275°
2026-05-05 23:34 -12.55871 -74.71489 38895 ft 447 kts 275°
2026-05-05 23:34 -12.55450 -74.77822 38897 ft 447 kts 275°
2026-05-05 23:35 -12.55029 -74.84154 38919 ft 447 kts 275°
2026-05-05 23:35 -12.54611 -74.90449 38931 ft 445 kts 275°
2026-05-05 23:36 -12.54187 -74.96775 38980 ft 445 kts 275°
2026-05-05 23:36 -12.53763 -75.03081 38979 ft 446 kts 275°
2026-05-05 23:37 -12.53334 -75.09441 38971 ft 447 kts 275°
2026-05-05 23:37 -12.52908 -75.15754 38966 ft 447 kts 275°
2026-05-05 23:38 -12.52480 -75.22075 38961 ft 447 kts 275°
2026-05-05 23:38 -12.51788 -75.28347 38954 ft 446 kts 280°
2026-05-05 23:39 -12.50509 -75.34535 38965 ft 445 kts 284°
2026-05-05 23:39 -12.49113 -75.40656 38977 ft 443 kts 284°
2026-05-05 23:40 -12.47717 -75.46774 38982 ft 443 kts 284°
2026-05-05 23:40 -12.46311 -75.52943 38977 ft 442 kts 284°
2026-05-05 23:41 -12.45629 -75.55938 38700 ft 436 kts 284°
2026-05-05 23:41 -12.44943 -75.58952 38096 ft 432 kts 284°
2026-05-05 23:41 -12.44263 -75.61948 37214 ft 435 kts 284°
2026-05-05 23:41 -12.43581 -75.64943 36196 ft 440 kts 285°
2026-05-05 23:42 -12.42889 -75.67976 35197 ft 445 kts 285°
2026-05-05 23:42 -12.42180 -75.71089 34369 ft 445 kts 286°
2026-05-05 23:42 -12.41484 -75.74145 33517 ft 446 kts 286°
2026-05-05 23:42 -12.40776 -75.77232 32632 ft 448 kts 286°
2026-05-05 23:43 -12.40068 -75.80321 32087 ft 443 kts 286°
2026-05-05 23:43 -12.39374 -75.83348 31619 ft 438 kts 286°
2026-05-05 23:43 -12.38685 -75.86360 31123 ft 434 kts 287°
2026-05-05 23:43 -12.38004 -75.89326 30649 ft 429 kts 286°
2026-05-05 23:44 -12.37329 -75.92272 30165 ft 425 kts 287°
2026-05-05 23:44 -12.36659 -75.95201 29660 ft 422 kts 286°
2026-05-05 23:44 -12.35998 -75.98083 29183 ft 418 kts 287°
2026-05-05 23:44 -12.35338 -76.00960 28695 ft 414 kts 287°
2026-05-05 23:45 -12.34679 -76.03824 28210 ft 411 kts 286°
2026-05-05 23:45 -12.34057 -76.06633 27709 ft 409 kts 285°
2026-05-05 23:45 -12.33447 -76.09467 27203 ft 407 kts 285°
2026-05-05 23:45 -12.32846 -76.12277 26702 ft 404 kts 285°
2026-05-05 23:46 -12.32243 -76.15088 26175 ft 403 kts 285°
2026-05-05 23:46 -12.31649 -76.17847 25640 ft 402 kts 285°
2026-05-05 23:46 -12.31047 -76.20637 25138 ft 399 kts 285°
2026-05-05 23:46 -12.30454 -76.23376 24657 ft 397 kts 285°
2026-05-05 23:47 -12.29858 -76.26135 24152 ft 396 kts 285°
2026-05-05 23:47 -12.29271 -76.28863 23630 ft 395 kts 285°
2026-05-05 23:47 -12.28683 -76.31598 23112 ft 394 kts 285°
2026-05-05 23:47 -12.28101 -76.34307 22604 ft 393 kts 285°
2026-05-05 23:48 -12.27517 -76.37029 22122 ft 392 kts 285°
2026-05-05 23:48 -12.26928 -76.39761 21623 ft 391 kts 284°
2026-05-05 23:48 -12.26350 -76.42450 21121 ft 391 kts 284°
2026-05-05 23:48 -12.25765 -76.45166 20611 ft 391 kts 284°
2026-05-05 23:49 -12.25183 -76.47857 20143 ft 390 kts 284°
2026-05-05 23:49 -12.24595 -76.50563 19636 ft 389 kts 284°
2026-05-05 23:49 -12.24013 -76.53252 19156 ft 388 kts 284°
2026-05-05 23:49 -12.23434 -76.55926 18649 ft 388 kts 284°
2026-05-05 23:50 -12.22854 -76.58605 18147 ft 387 kts 284°
2026-05-05 23:50 -12.22282 -76.61249 17974 ft 369 kts 283°
2026-05-05 23:50 -12.21745 -76.63738 17936 ft 349 kts 283°
2026-05-05 23:50 -12.21225 -76.66132 17528 ft 348 kts 284°
2026-05-05 23:51 -12.20699 -76.68520 17200 ft 344 kts 283°
2026-05-05 23:51 -12.20176 -76.70899 16889 ft 340 kts 283°
2026-05-05 23:51 -12.19664 -76.73241 16555 ft 335 kts 283°
2026-05-05 23:51 -12.19163 -76.75531 16354 ft 331 kts 283°
2026-05-05 23:52 -12.18658 -76.77831 16019 ft 329 kts 283°
2026-05-05 23:52 -12.18161 -76.80098 15638 ft 325 kts 283°
2026-05-05 23:52 -12.17672 -76.82328 15088 ft 324 kts 283°
2026-05-05 23:52 -12.17179 -76.84575 14597 ft 323 kts 283°
2026-05-05 23:53 -12.16688 -76.86809 14141 ft 320 kts 283°
2026-05-05 23:53 -12.16208 -76.88994 13746 ft 318 kts 282°
2026-05-05 23:53 -12.15727 -76.91185 13153 ft 316 kts 282°
2026-05-05 23:53 -12.15247 -76.93379 12650 ft 313 kts 282°
2026-05-05 23:54 -12.14778 -76.95522 12172 ft 310 kts 282°
2026-05-05 23:54 -12.14309 -76.97670 11723 ft 308 kts 282°
2026-05-05 23:54 -12.13849 -76.99775 11343 ft 307 kts 282°
2026-05-05 23:54 -12.13384 -77.01904 11046 ft 304 kts 282°
2026-05-05 23:55 -12.12927 -77.03992 10736 ft 302 kts 283°
2026-05-05 23:55 -12.12469 -77.06086 10406 ft 300 kts 283°
2026-05-05 23:55 -12.12012 -77.08165 10166 ft 295 kts 283°
2026-05-05 23:55 -12.11571 -77.10180 10031 ft 286 kts 283°
2026-05-05 23:56 -12.11149 -77.12108 9895 ft 277 kts 283°
2026-05-05 23:56 -12.10730 -77.14013 9593 ft 271 kts 283°
2026-05-05 23:56 -12.10319 -77.15884 9172 ft 269 kts 283°
2026-05-05 23:56 -12.09894 -77.17741 8738 ft 267 kts 287°
2026-05-05 23:57 -12.08986 -77.19331 8260 ft 266 kts 319°
2026-05-05 23:57 -12.07386 -77.20288 7830 ft 262 kts 336°
2026-05-05 23:57 -12.05745 -77.21045 7396 ft 261 kts 335°
2026-05-05 23:57 -12.04096 -77.21831 6965 ft 259 kts 335°
2026-05-05 23:58 -12.02482 -77.22616 6536 ft 257 kts 335°
2026-05-05 23:58 -12.00856 -77.23425 6107 ft 256 kts 334°
2026-05-05 23:58 -11.99278 -77.24242 5688 ft 254 kts 333°
2026-05-05 23:58 -11.97707 -77.25066 5315 ft 254 kts 334°
2026-05-05 23:59 -11.96125 -77.25893 5041 ft 252 kts 334°
2026-05-05 23:59 -11.94566 -77.26709 4757 ft 251 kts 334°
2026-05-05 23:59 -11.93018 -77.27514 4477 ft 250 kts 335°
2026-05-05 23:59 -11.91353 -77.27984 4197 ft 245 kts
2026-05-06 00:00 -11.89771 -77.27562 4001 ft 234 kts 33°
2026-05-06 00:00 -11.88532 -77.26536 3838 ft 225 kts 46°
2026-05-06 00:00 -11.87540 -77.25301 3705 ft 218 kts 54°
2026-05-06 00:00 -11.86697 -77.24063 3554 ft 209 kts 56°
2026-05-06 00:01 -11.85980 -77.22817 3375 ft 201 kts 75°
2026-05-06 00:01 -11.85986 -77.21447 3187 ft 193 kts 112°
2026-05-06 00:01 -11.86788 -77.20372 2957 ft 190 kts 141°
2026-05-06 00:01 -11.87898 -77.19656 2692 ft 190 kts 151°
2026-05-06 00:02 -11.89090 -77.19066 2460 ft 186 kts 154°
2026-05-06 00:02 -11.90214 -77.18537 2410 ft 171 kts 153°
2026-05-06 00:02 -11.91280 -77.18024 2212 ft 166 kts 153°
2026-05-06 00:02 -11.92285 -77.17529 1988 ft 156 kts 153°
2026-05-06 00:03 -11.93238 -77.17055 1797 ft 144 kts 153°
2026-05-06 00:03 -11.94115 -77.16619 1603 ft 136 kts 153°
2026-05-06 00:03 -11.94960 -77.16200 1438 ft 135 kts 154°
2026-05-06 00:03 -11.95811 -77.15778 1270 ft 134 kts 154°
2026-05-06 00:04 -11.96645 -77.15365 1099 ft 133 kts 154°
2026-05-06 00:04 -11.97484 -77.14952 929 ft 133 kts 155°
2026-05-06 00:04 -11.98309 -77.14542 721 ft 132 kts 155°
2026-05-06 00:04 -11.99142 -77.14128 558 ft 131 kts 155°
2026-05-06 00:05 -12.00778 -77.13319 234 ft 129 kts 156°
2026-05-06 00:05 -12.01583 -77.12926 126 ft 126 kts 155°
2026-05-06 00:05 -12.02246 -77.12600 125 ft 80 kts 154°
2026-05-06 00:06 -12.02592 -77.12427 125 ft 30 kts 149°
2026-05-06 00:06 -12.02718 -77.12305 125 ft 17 kts 127°
2026-05-06 00:06 -12.02754 -77.12258 125 ft 8 kts 128°
2026-05-06 00:06 -12.02789 -77.12207 125 ft 9 kts 108°
2026-05-06 00:07 -12.02749 -77.12166 125 ft 9 kts 345°
2026-05-06 00:07 -12.02689 -77.12199 125 ft 10 kts 331°
2026-05-06 00:07 -12.02626 -77.12233 125 ft 10 kts 335°
2026-05-06 00:07 -12.02560 -77.12264 125 ft 10 kts 335°
2026-05-06 00:08 -12.02494 -77.12297 125 ft 10 kts 333°
2026-05-06 00:08 -12.02426 -77.12331 125 ft 10 kts 334°
2026-05-06 00:08 -12.02358 -77.12365 125 ft 10 kts 335°
2026-05-06 00:08 -12.02289 -77.12399 125 ft 11 kts 334°
2026-05-06 00:09 -12.02216 -77.12410 125 ft 11 kts 32°
2026-05-06 00:09 -12.02177 -77.12343 125 ft 12 kts 65°
2026-05-06 00:09 -12.02130 -77.12247 125 ft 17 kts 65°
2026-05-06 00:09 -12.02073 -77.12123 126 ft 18 kts 65°
2026-05-06 00:10 -12.02018 -77.12007 126 ft 17 kts 64°
2026-05-06 00:10 -12.01964 -77.11894 126 ft 17 kts 64°
2026-05-06 00:10 -12.01920 -77.11799 126 ft 10 kts 66°
2026-05-06 00:10 -12.01932 -77.11735 126 ft 10 kts 142°
2026-05-06 00:11 -12.01996 -77.11700 126 ft 10 kts 154°
2026-05-06 00:11 -12.02066 -77.11665 126 ft 12 kts 154°
2026-05-06 00:11 -12.02149 -77.11625 126 ft 14 kts 155°
2026-05-06 00:11 -12.02238 -77.11581 126 ft 13 kts 155°
2026-05-06 00:12 -12.02321 -77.11582 126 ft 13 kts 234°
2026-05-06 00:12 -12.02363 -77.11664 126 ft 12 kts 244°
2026-05-06 00:12 -12.02401 -77.11741 126 ft 9 kts 224°
2026-05-06 00:12 -12.02457 -77.11733 126 ft 8 kts 152°
2026-05-06 00:13 -12.02513 -77.11706 126 ft 8 kts 155°
2026-05-06 00:13 -12.02568 -77.11678 126 ft 8 kts 154°
2026-05-06 00:13 -12.02626 -77.11651 126 ft 9 kts 154°
2026-05-06 00:13 -12.02654 -77.11639 126 ft 1 kts 192°
2026-05-06 00:14 -12.02664 -77.11650 126 ft 2 kts 238°
2026-05-06 00:14 -12.02671 -77.11665 126 ft 2 kts 244°
2026-05-06 00:14 -12.02679 -77.11682 126 ft 2 kts 244°
2026-05-06 00:14 -12.02682 -77.11688 126 ft 0 kts 244°
2026-05-06 00:17 -11.99352 -77.14027 533 ft 135 kts 155°
2026-05-06 00:17 -12.00172 -77.13627 364 ft 130 kts 156°
2026-05-06 00:17 -12.00989 -77.13223 196 ft 129 kts 155°
2026-05-06 00:17 -12.01784 -77.12826 134 ft 120 kts 155°
2026-05-06 00:18 -11.99863 -77.13775 435 ft 135 kts 155°
2026-05-06 00:18 -12.00718 -77.13351 252 ft 135 kts 156°
2026-05-06 00:18 -12.01549 -77.12941 129 ft 130 kts 155°
2026-05-06 00:18 -11.99400 -77.14003 524 ft 135 kts 154°
2026-05-06 00:19 -12.00252 -77.13585 333 ft 135 kts 155°
2026-05-06 00:19 -12.01089 -77.13170 173 ft 134 kts 155°
2026-05-06 00:19 -12.01890 -77.12776 125 ft 107 kts 153°
2026-05-06 00:19 -11.99766 -77.13822 448 ft 135 kts 155°
2026-05-06 00:20 -12.00624 -77.13398 264 ft 134 kts 155°
2026-05-06 00:20 -12.01463 -77.12985 128 ft 132 kts 155°
2026-05-06 00:20 -11.99520 -77.13944 498 ft 135 kts 155°
2026-05-06 00:20 -12.00378 -77.13519 314 ft 135 kts 155°
2026-05-06 00:21 -12.01223 -77.13103 150 ft 133 kts 156°
2026-05-06 00:21 -11.99803 -77.13806 435 ft 135 kts 155°
2026-05-06 00:21 -12.00653 -77.13385 272 ft 134 kts 155°
2026-05-06 00:21 -12.01491 -77.12972 129 ft 132 kts 156°
2026-05-06 00:22 -12.02200 -77.12624 125 ft 88 kts 154°
2026-05-06 00:22 -11.99852 -77.13782 417 ft 129 kts 155°
2026-05-06 00:22 -12.00668 -77.13380 260 ft 130 kts 155°
2026-05-06 00:22 -12.01473 -77.12980 132 ft 127 kts 155°
2026-05-06 00:23 -11.99631 -77.13889 475 ft 135 kts 155°
2026-05-06 00:23 -12.00482 -77.13469 305 ft 134 kts 155°
2026-05-06 00:23 -12.01328 -77.13051 137 ft 132 kts 155°
2026-05-06 00:23 -12.02098 -77.12671 125 ft 102 kts 156°